www.pogodaiklimat.ru

Погода и климат >> Архив погоды >> Индонезия >> Банда-Ачех


ПОГОДА в Банда-Ачехе

  • Прогноз погоды в Банда-Ачехе
  • Монитор погоды в Банда-Ачехе

АРХИВ ПОГОДЫ в Банда-Ачехе

Время (UTC), дата Ветер
(напр.,м/с)
 
Видим.   Явления Облачность Т
(С)
Тd
(С)
f
(%)
Тe
(С)
Тes
(С)
Комфортность P
(гПа)
Po
(гПа)
Тmin
(С)
Tmax
(С)
R
(мм)
R24
(мм)
S
(см)
03 9.09 ЮВ 3 10 км 8/3 570 м
[Sc Ac trans Ci fib]
+27.6 +23.8 80 +38 +43 очень
душно
1012.5 1010.1
06 9.09 В 2 10 км 9/4 540 м
[Sc Ac trans Ci fib]
+31.2 +22.4 60 +41 +48 опасность
перегрева
1011.0 1008.6
09 9.09 С 3 10 км 9/5 540 м
[Cu Sc Ac trans Ci fib]
+30.4 +24.1 69 +42 +44 опасность
перегрева
1008.9 1006.5
12 9.09 СВ 2 10 км 9/5 540 м
[Cu Sc As op Ci fib]
+29.0 +24.1 75 +40 +40 очень
душно
1009.2 1006.8 +32.0
15 9.09 В 2 9000 м 9/4 500 м
[Cu med, cong As op Ci fib]
+27.0 +24.0 84 +37 +37 очень
душно
1010.8 1008.4
18 9.09 СВ 2 9000 м 9/5 500 м
[Cu med, cong As op Ci fib]
+26.0 +23.7 87 +35 +35 очень
душно
1010.8 1008.4
21 9.09 Ю 2 8000 м 9/4 540 м
[Sc As op Ci fib]
+25.2 +23.4 90 +34 +34 очень
душно
1009.6 1007.2
00 10.09 ЮВ 3 8000 м 9/5 500 м
[Cu Sc As op Ci fib]
+25.2 +23.4 90 +34 +34 очень
душно
1010.6 1008.2 +24.8
03 10.09 Ю 2 10 км 9/5 500 м
[Cu Sc As op Ci fib]
+28.6 +23.3 73 +39 +43 очень
душно
1012.8 1010.4
06 10.09 З 7 10 км слаб. дождь 9/5 500 м
[Cu Sc As op Ci fib]
+31.0 +23.5 64 +42 +44 опасность
перегрева
1010.7 1008.3
09 10.09 ЮВ 7 10 км {дождь} 9/4 540 м
[Cu Sc As op Ci fib]
+28.2 +21.3 66 +36 +37 очень
душно
1009.8 1007.4 2
12 10.09 ЮВ 2 10 км {дождь} 8/4 540 м
[Cu Sc As op Ci fib]
+28.2 +21.6 67 +36 +36 очень
душно
1010.3 1007.9 +31.2 2
15 10.09 ЮВ 2 10 км 6/4 540 м
[Sc As trans Ci fib]
+25.6 +22.6 84 +34 +34 очень
душно
1012.4 1010.0
18 10.09 ЮВ 2 10 км 6/3 540 м
[Sc Ac trans Ci fib]
+25.2 +22.5 85 +33 +33 очень
душно
1012.0 1009.6
21 10.09 штиль 0 10 км 6/3 540 м
[Sc Ac trans Ci fib]
+23.6 +22.3 92 +31 +31 очень
душно
1011.0 1008.6
00 11.09 Ю 2 9000 м мгла 8/3 540 м
[Sc As trans Ci fib]
+23.0 +22.0 94 +31 +31 очень
душно
1011.8 1009.4 +23.0 2
03 11.09 Ю 3 10 км 8/3 540 м
[Sc Ac trans Ci fib]
+28.0 +22.0 70 +36 +41 очень
душно
1013.8 1011.4
06 11.09 З 4 10 км 9/5 540 м
[Cu Sc As op Ci fib]
+32.6 +21.4 52 +41 +45 опасность
перегрева
1011.8 1009.4
09 11.09 СЗ 5 10 км 9/5 540 м
[Sc As op Ci fib]
+32.4 +22.3 55 +41 +43 опасность
перегрева
1010.6 1008.1
12 11.09 С 2 10 км 10/6 540 м
[Sc As op Ci fib]
+29.6 +23.6 70 +40 +40 очень
душно
1011.4 1008.9 +33.2
15 11.09 Ю 2 10 км 8/4 540 м
[Sc As op Ci fib]
+26.2 +22.6 81 +35 +35 очень
душно
1013.8 1011.4
18 11.09 ЮВ 2 9000 м 6/3 570 м
[Sc Ac trans Ci fib]
+25.6 +22.3 82 +33 +33 очень
душно
1013.0 1010.6
21 11.09 Ю 2 9000 м 6/3 570 м
[Sc Ac trans Ci fib]
+25.0 +21.9 83 +32 +32 очень
душно
1012.3 1009.9
00 12.09 Ю 3 10 км 6/3 570 м
[Sc Ac trans Ci fib]
+23.2 +21.9 92 +31 +32 очень
душно
1013.7 1011.3 +23.2
03 12.09 ЮЗ 3 10 км 6/3 600 м
[Sc Ac trans Ci fib]
+29.6 +22.9 67 +39 +46 очень
душно
1015.0 1012.6
06 12.09 СЗ 6 10 км 9/4 570 м
[Sc Ac trans Ci fib]
+32.5 +23.1 58 +43 +46 опасность
перегрева
1012.6 1010.2
09 12.09 СЗ 7 10 км 6/4 570 м
[Cu med, cong Ac trans Ci fib]
+32.6 +21.7 53 +41 +42 опасность
перегрева
1010.5 1008.1
12 12.09 СЗ 3 10 км 6/3 570 м
[Sc Ac trans Ci fib]
+30.0 +22.0 62 +39 +39 очень
душно
1011.4 1009.0 +34.0
15 12.09 штиль 0 10 км 9/5 540 м
[Sc As op Ci fib]
+27.6 +23.8 80 +38 +38 очень
душно
1013.2 1010.8
18 12.09 штиль 0 10 км 9/4 540 м
[Sc Ac As Ci fib]
+26.4 +24.3 88 +37 +37 очень
душно
1013.5 1011.1
21 12.09 ЮВ 2 9000 м 8/4 540 м
[Sc Ac As Ci fib]
+25.2 +23.7 91 +34 +34 очень
душно
1012.3 1009.9
00 13.09 Ю 2 9000 м 8/3 540 м
[Sc Ac As Ci fib]
+24.4 +22.8 91 +32 +32 очень
душно
1012.8 1010.4 +24.2
03 13.09 З 3 9000 м 8/4 480 м
[Cu med, cong Ac trans Ci fib]
+30.6 +23.0 64 +41 +45 опасность
перегрева
1014.2 1011.8
06 13.09 С 6 10 км 8/4 480 м
[Cu med, cong As op Ci fib]
+32.6 +23.1 57 +43 +46 опасность
перегрева
1013.0 1010.6
09 13.09 СЗ 7 10 км 8/4 570 м
[Cu med, cong Ac trans Ci fib]
+31.4 +23.3 62 +42 +43 опасность
перегрева
1010.9 1008.5
12 13.09 С 5 10 км гроза, ливневой дождь 9/4 570 м
[Cb cap Ac trans Ci fib]
+27.4 +24.2 83 +38 +38 очень
душно
1011.8 1009.4 +33.6
15 13.09 ЮВ 2 10 км {дождь} 8/4 570 м
[Sc Ac trans Ci fib]
+26.0 +24.2 90 +36 +36 очень
душно
1013.4 1011.0 0.6
18 13.09 ЮЗ 2 10 км 8/4 570 м
[Sc Ac trans Ci fib]
+25.0 +23.2 90 +33 +33 очень
душно
1012.0 1009.6
21 13.09 Ю 2 10 км 8/4 570 м
[Sc Ac trans Ci fib]
+24.0 +22.7 92 +31 +31 очень
душно
1010.4 1008.0
00 14.09 Ю 2 8000 м {дождь} 8/4 570 м
[Sc Ac trans Ci fib]
+23.4 +22.4 94 +32 +32 очень
душно
1011.9 1009.5 +23.4 0.6
03 14.09 З 2 9000 м 8/4 540 м
[Sc Ac trans Ci fib]
+29.8 +22.4 65 +39 +44 очень
душно
1012.7 1010.3
06 14.09 Ю 6 10 км 8/4 500 м
[Cu med, cong Ac trans Ci fib]
+33.6 +20.9 47 +41 +44 опасность
перегрева
1009.8 1007.4
09 14.09 Ю 6 10 км 8/4 540 м
[Cu Sc Ac As Ci fib]
+34.0 +21.0 47 +41 +43 опасность
перегрева
1007.8 1005.4
12 14.09 ЮЗ 6 10 км 8/4 540 м
[Sc Ac trans Ci fib]
+30.6 +21.4 58 +39 +39 очень
душно
1009.1 1006.7 +35.0
15 14.09 С 2 10 км 8/4 570 м
[Sc Ac trans Ci fib]
+28.8 +21.6 65 +37 +37 очень
душно
1011.4 1009.0
18 14.09 СВ 1 10 км 8/4 570 м
[Sc Ac trans Ci fib]
+27.6 +21.9 71 +36 +36 очень
душно
1011.2 1008.8
21 14.09 ЮЗ 2 10 км 6/3 600 м
[Sc Ac trans Ci fib]
+25.8 +22.5 82 +34 +34 очень
душно
1009.4 1007.0
00 15.09 ЮВ 2 10 км 6/4 570 м
[Cb cap Ac trans Ci fib]
+24.6 +22.4 88 +32 +32 очень
душно
1009.7 1007.3 +24.2
03 15.09 СВ 1 10 км 9/4 570 м
[Sc Ac trans Ci fib]
+29.6 +22.9 67 +39 +45 очень
душно
1012.2 1009.8
06 15.09 Ю 8 10 км 8/4 300 м
[Sc As trans Ci fib]
+35.0 +20.9 44 +42 +44 опасность
перегрева
1009.0 1006.6
09 15.09 ЮЗ 3 10 км 9/4 540 м
[Sc As trans Ci fib]
+32.8 +19.9 47 +39 +42 очень
душно
1007.0 1004.6
12 15.09 ЮВ 3 10 км 9/5 540 м
[Sc As trans Ci fib]
+29.8 +22.1 63 +38 +38 очень
душно
1008.4 1006.0 +35.2
15 15.09 ЮЗ 2 10 км 8/4 500 м
[Cu med, cong As op Ci fib]
+28.0 +22.4 72 +37 +37 очень
душно
1011.1 1008.7
18 15.09 штиль 0 9000 м 8/4 500 м
[Cu med, cong As op Ci fib]
+26.6 +22.1 76 +34 +34 очень
душно
1009.7 1007.3
21 15.09 Ю 3 9000 м 8/4 500 м
[Cu med, cong As op Ci fib]
+25.8 +22.5 82 +34 +34 очень
душно
1008.6 1006.2

 

Местоположение метеостанции Банда-Ачех (Индонезия): широта 5.52 долгота 95.42 высота над уровнем моря 21 м.

В архиве по умолчанию представлена погода в Банда-Ачехе за последнюю неделю. Архивные данные за месяц целиком и за предыдущие месяцы, начиная с января 2011 года, Вы можете получить, выбрав интересующий диапазон дат из раскрывающегося списка и нажав кнопку "Ввод!".


*Определитесь, кто Вы:
робот инопланетянин человек

Внимание! Время в таблицах - всемирное. Для получения местного времени необходимо прибавить поправку, которая равна 7 ч.

Смотрите также архив погоды в соседних городах и на ближайших метеорологических станциях:

Погода в Сабанге (Индонезия) (40 км)
Погода в Меулабохе (Индонезия) (161 км)
Погода в Лхоксёмаве (Индонезия) (200 км)
Погода в Нанкаури (Андаманские и Никобарские острова, Индия) (344 км)
Погода в Белаване (Индонезия) (411 км)
Погода на Пхукете (Таиланд) (421 км)
Погода в Медан Полония (Индонезия) (422 км)
Погода в Пхукет аэропорту (Таиланд) (432 км)
Погода на Ко Ланта (Таиланд) (459 км)
Погода в Такуа Па (Таиланд) (470 км)

Пояснения к столбцам:

Ветер - указаны скорость ветра в м/с - средняя за 10 мин, порывы в срок и между сроками (в фигурных скобках) и направление, откуда дует ветер: С - северный, СВ - северо-восточный, В - восточный, ЮВ - юго-восточный, Ю - южный, ЮЗ - юго-западный, З - западный, СЗ - северо-западный.
Видимость - горизонтальная дальность видимости в метрах или километрах. При видимости от 1 до 10 км при отсутствии осадков обычно наблюдается дымка, при ухудшении видимости до 1 км и менее - туман. В сухую погоду видимость может ухудшаться дымом, пылью или мглою.
Явления - указаны атмосферные явления, наблюдавшиеся в срок или в последний час перед сроком; фигурными скобками обозначены явления, наблюдавшиеся между сроками (за 1-3 часа до срока); квадратными скобками обозначены град или гололедные отложения с указанием их диаметра в мм.
Облачность - указаны через наклонную черту общая и нижняя облачность в баллах и высота нижней границы облаков в метрах; квадратными скобками обозначены формы облаков: Ci - перистые, Cs - перисто-слоистые, Cc - перисто-кучевые, Ac - высококучевые, As - высокослоистые, Sc - слоисто-кучевые, Ns - слоисто-дождевые, Cu - кучевые, Cb - кучево-дождевые. Подробнее классификацию облаков см. в Атласе облаков (PDF).
T - Температура воздуха - температура, измеренная на высоте 2 м над землей.
Td - Температура точки росы - температура, при понижении до которой содержащийся в воздухе водяной пар достигнет насыщения.
f - Относительная влажность воздуха - влажноcть воздуха, измеренная на высоте 2 м над землей.
Te - Эффективная температура - температура, которую ощущает одетый по сезону человек в тени. Характеристика душности погоды. При расчете учитывается влияние влажности воздуха и скорости ветра на теплоощущения человека.
Tes - Эффективная температура на солнце - температура, которую ощущает человек, с поправкой на солнечный нагрев. Характеристика знойности погоды. Зависит от высоты солнца над горизонтом, облачности и скорости ветра. Ночью, в пасмурную погоду, а также при ветре 12 м/с и более поправка равна нулю.
P - Атмосферное давление - приведенное к уровню моря атмосферное давление.
Po - Атмосферное давление - измеренное на уровне метеостанции атмосферное давление.
Tmin - Минимальная температура - минимум температуры воздуха на высоте 2 м над землей.
Tmax - Максимальная температура - максимум температуры воздуха на высоте 2 м над землей.
R - Количество осадков - Количество выпавших осадков за период времени, мм. При наведении курсора мыши на число - период времени, за который выпало указанное количество осадков.
R24 - Количество осадков - Количество выпавших осадков за 24 часа, мм.
S - Снежный покров - Высота снежного покрова, см. При наведении курсора мыши на число - состояние снежного покрова и степень покрытия местности в баллах.